"2010-06-25 00:00:00",230860,3.673,133.9,2.78,0.441,23.34,111.3481,28.36,29.24,11.58,0,111.6,13.02,29.21,95.9
"2010-06-25 00:00:30",230861,5.137,123.7,5.253,0.39,23.41,111.3464,28.36,29.23,11.39,0,111.6,13.02,29.21,85.7
"2010-06-25 00:01:00",230862,4.712,123.6,2.21,0.382,23.44,111.3519,28.37,29.24,11.36,0,111.6,13.02,29.22,85.6
"2010-06-25 00:01:30",230863,4.478,122.4,4.587,0.201,23.46,111.3524,28.37,29.23,11.28,0,111.6,13.02,29.22,84.4
"2010-06-25 00:02:00",230864,4.241,120.1,2.331,0.147,23.44,111.3555,28.38,29.26,11.27,0,111.6,13.02,29.23,82.1
"2010-06-25 00:02:30",230865,4.509,123.9,1.377,0.181,23.39,111.3575,28.38,29.25,11.25,0,111.6,13.02,29.24,85.9
"2010-06-25 00:03:00",230866,4.77,120.4,5.898,0.148,23.42,111.3595,28.39,29.27,11.25,0,111.6,13.02,29.24,82.4
"2010-06-25 00:03:30",230867,4.483,110.9,5.582,0.251,23.45,111.3628,28.4,29.27,11.25,0,111.6,13.02,29.25,72.9
"2010-06-25 00:04:00",230868,3.711,122.9,3.282,0.236,23.41,111.3645,28.4,29.27,11.21,0,111.6,13.02,29.25,84.9
"2010-06-25 00:04:30",230869,3.932,129.2,4.318,0.265,23.39,111.3656,28.41,29.28,11.17,0,111.6,13.02,29.26,91.2
"2010-06-25 00:05:00",230870,3.606,125.9,2.758,0.204,23.4,111.3651,28.4,29.29,11.22,0,111.6,13.02,29.25,87.9
"2010-06-25 00:05:30",230871,3.988,104.3,6.603,0.465,23.39,111.3617,28.4,29.3,11.24,0,111.6,13.02,29.25,66.3
"2010-06-25 00:06:00",230872,3.953,110.4,4.493,0.15,23.36,111.359,28.39,29.3,11.28,0,111.6,13.02,29.24,72.4
"2010-06-25 00:06:30",230873,4.163,114,5.083,0.185,23.39,111.3579,28.39,29.29,11.27,0,111.6,13.02,29.24,76.0
"2010-06-25 00:07:00",230874,4.017,118,2.653,0.221,23.39,111.3597,28.39,29.29,11.25,0,111.6,13.02,29.24,80.0
"2010-06-25 00:07:30",230875,3.167,124.1,7.504,0.36,23.37,111.3596,28.39,29.29,11.24,0,111.6,13.02,29.24,86.1
"2010-06-25 00:08:00",230876,3.739,113.1,4.107,0.341,23.35,111.3598,28.39,29.3,11.26,0,111.6,13.02,29.24,75.1
"2010-06-25 00:08:30",230877,3.926,119.8,4.803,0.428,23.39,111.361,28.39,29.27,11.39,0,111.6,13.02,29.24,81.8
"2010-06-25 00:09:00",230878,3.969,121.6,2.588,0.205,23.46,111.3593,28.39,29.26,11.67,0,111.6,13.02,29.24,83.6
"2010-06-25 00:09:30",230879,3.806,126.1,4.552,0.407,23.46,111.3568,28.38,29.26,11.66,0,111.6,13.02,29.23,88.1
"2010-06-25 00:10:00",230880,3.134,130.6,4.531,0.185,23.41,111.3528,28.37,29.27,11.34,0,111.6,13.02,29.22,92.6
"2010-06-25 00:10:30",230881,2.644,127.3,6.141,0.275,23.39,111.3503,28.37,29.25,11.2,0,111.6,13.02,29.22,89.3
"2010-06-25 00:11:00",230882,2.345,123.5,5.041,0.189,23.36,111.3518,28.37,29.25,11.21,0,111.6,13.02,29.22,85.5
"2010-06-25 00:11:30",230883,2.259,131.5,3.879,0.188,23.37,111.3533,28.37,29.26,11.15,0,111.6,13.03,29.22,93.5
"2010-06-25 00:12:00",230884,2.631,128.4,3.258,0.154,23.38,111.3559,28.38,29.26,11.14,0,111.6,13.03,29.23,90.4
"2010-06-25 00:12:30",230885,2.88,129,1.576,0.212,23.34,111.3569,28.38,29.25,11.14,0,111.6,13.03,29.23,91.0
"2010-06-25 00:13:00",230886,3.447,127.5,4.145,0.241,23.34,111.3552,28.38,29.25,11.25,0,111.6,13.03,29.23,89.5
"2010-06-25 00:13:30",230887,3.094,126.7,2.523,0.18,23.34,111.3545,28.38,29.26,11.21,0,111.6,13.03,29.23,88.7
"2010-06-25 00:14:00",230888,2.882,127.2,5.888,0.248,23.4,111.3569,28.38,29.25,11.25,0,111.6,13.03,29.23,89.2
"2010-06-25 00:14:30",230889,2.776,131.5,5.966,0.252,23.39,111.3613,28.39,29.25,11.21,0,111.6,13.03,29.25,93.5
"2010-06-25 00:15:00",230890,3.326,129.3,2.931,0.19,23.38,111.3626,28.4,29.26,11.24,0,111.6,13.03,29.25,91.3
"2010-06-25 00:15:30",230891,3.185,129.8,1.484,0.118,23.36,111.365,28.4,29.25,11.3,0,111.6,13.03,29.25,91.8
"2010-06-25 00:16:00",230892,3.531,132.2,1.572,0.142,23.34,111.368,28.41,29.26,11.26,0,111.6,13.03,29.26,94.2
"2010-06-25 00:16:30",230893,3.472,130.1,2.798,0.109,23.4,111.37,28.42,29.27,11.18,0,111.6,13.03,29.27,92.1
"2010-06-25 00:17:00",230894,2.961,124,3.668,0.144,23.41,111.3738,28.43,29.26,11.13,0,111.6,13.03,29.28,86.0
"2010-06-25 00:17:30",230895,3.238,115.1,3.806,0.182,23.39,111.3732,28.42,29.26,11.02,0,111.6,13.03,29.28,77.1
"2010-06-25 00:18:00",230896,3.069,108.4,3.241,0.274,23.41,111.3713,28.42,29.27,10.98,0,111.6,13.03,29.27,70.4
"2010-06-25 00:18:30",230897,3.463,116.3,2.924,0.082,23.36,111.3657,28.41,29.26,11.02,0,111.6,13.03,29.26,78.3
"2010-06-25 00:19:00",230898,3.336,118.8,0.894,0.064,23.37,111.3649,28.4,29.28,10.88,0,111.6,13.03,29.25,80.8
"2010-06-25 00:19:30",230899,3.267,119,4.09,0.099,23.38,111.3637,28.4,29.28,10.9,0,111.6,13.03,29.25,81.0
"2010-06-25 00:20:00",230900,3.196,115.2,2.695,0.106,23.38,111.3609,28.39,29.27,10.94,0,111.6,13.03,29.24,77.2
"2010-06-25 00:20:30",230901,3.203,114.2,2.679,0.146,23.44,111.3607,28.39,29.27,11.04,0,111.6,13.03,29.24,76.2
"2010-06-25 00:21:00",230902,3.399,121.1,2.066,0.09,23.45,111.3604,28.39,29.27,10.88,0,111.6,13.03,29.24,83.1
"2010-06-25 00:21:30",230903,3.178,128.5,3.967,0.093,23.46,111.3615,28.39,29.27,10.93,0,111.6,13.02,29.25,90.5
"2010-06-25 00:22:00",230904,2.757,131.4,5.355,0.225,23.48,111.3646,28.4,29.27,10.99,0,111.6,13.02,29.25,93.4
"2010-06-25 00:22:30",230905,2.804,136,1.47,0.175,23.45,111.3665,28.41,29.27,11.08,0,111.6,13.02,29.26,98.0
"2010-06-25 00:23:00",230906,2.29,141.9,2.358,0.144,23.41,111.3615,28.39,29.27,11.14,0,111.6,13.02,29.25,103.9
"2010-06-25 00:23:30",230907,2.434,143.5,3.703,0.199,23.45,111.3604,28.39,29.27,11.15,0,111.6,13.02,29.24,105.5
"2010-06-25 00:24:00",230908,2.872,141.7,3.491,0.11,23.46,111.3609,28.39,29.27,11.03,0,111.6,13.02,29.24,103.7
"2010-06-25 00:24:30",230909,2.654,147.8,4.992,0.226,23.46,111.3668,28.41,29.28,11.01,0,111.6,13.02,29.26,109.8
"2010-06-25 00:25:00",230910,2.473,143,4.573,0.176,23.44,111.3764,28.43,29.29,10.98,0,111.6,13.02,29.28,105.0
"2010-06-25 00:25:30",230911,3,135.4,1.447,0.123,23.48,111.3823,28.45,29.31,10.91,0,111.6,13.02,29.30,97.4
"2010-06-25 00:26:00",230912,3.203,132.5,4.965,0.145,23.47,111.382,28.45,29.32,10.92,0,111.6,13.02,29.30,94.5
"2010-06-25 00:26:30",230913,2.962,123.1,3.543,0.189,23.49,111.3825,28.45,29.32,10.9,0,111.6,13.02,29.30,85.1
"2010-06-25 00:27:00",230914,3.049,125,2.941,0.106,23.5,111.3842,28.45,29.31,10.84,0,111.6,13.03,29.30,87.0
"2010-06-25 00:27:30",230915,3.06,112.4,2.886,0.104,23.51,111.3836,28.45,29.32,10.83,0,111.6,13.03,29.30,74.4
"2010-06-25 00:28:00",230916,3.24,120,3.318,0.252,23.53,111.3831,28.45,29.31,10.79,0,111.6,13.03,29.30,82.0
"2010-06-25 00:28:30",230917,2.97,112.8,2.998,0.189,23.52,111.3826,28.45,29.33,10.78,0,111.6,13.03,29.30,74.8
"2010-06-25 00:29:00",230918,2.868,119.2,3.126,0.119,23.48,111.3841,28.45,29.32,10.86,0,111.6,13.03,29.30,81.2
"2010-06-25 00:29:30",230919,2.644,113.6,2.251,0.171,23.54,111.386,28.46,29.32,10.74,0,111.6,13.03,29.31,75.6
"2010-06-25 00:30:00",230920,2.578,114.1,4.65,0.149,23.47,111.386,28.46,29.31,10.71,0,111.6,13.03,29.31,76.1
"2010-06-25 00:30:30",230921,2.925,114.5,1.696,0.135,23.5,111.3869,28.46,29.31,10.68,0,111.6,13.03,29.31,76.5
"2010-06-25 00:31:00",230922,3.168,121,4.198,0.15,23.53,111.3876,28.46,29.31,10.7,0,111.6,13.03,29.31,83.0
"2010-06-25 00:31:30",230923,2.931,126.9,3.054,0.123,23.52,111.3884,28.46,29.32,10.74,0,111.6,13.03,29.32,88.9
"2010-06-25 00:32:00",230924,3.098,129,2.378,0.134,23.5,111.3876,28.46,29.32,10.83,0,111.6,13.03,29.31,91.0
"2010-06-25 00:32:30",230925,3.1,135.6,2.17,0.181,23.51,111.3889,28.47,29.31,10.98,0,111.6,13.03,29.32,97.6
"2010-06-25 00:33:00",230926,2.705,135,3.539,0.206,23.52,111.386,28.46,29.32,11.11,0,111.6,13.03,29.31,97.0
"2010-06-25 00:33:30",230927,3.152,127.1,5.064,0.223,23.51,111.3882,28.46,29.32,10.93,0,111.6,13.03,29.31,89.1
"2010-06-25 00:34:00",230928,3.342,125.7,1.459,0.221,23.48,111.3856,28.46,29.32,10.82,0,111.6,13.03,29.31,87.7
"2010-06-25 00:34:30",230929,3.607,128.2,1.62,0.138,23.5,111.3831,28.45,29.32,11.24,0,111.5,13.03,29.30,90.2
"2010-06-25 00:35:00",230930,3.128,126.8,1.717,0.146,23.49,111.3823,28.45,29.31,11.16,0,111.6,13.03,29.30,88.8
"2010-06-25 00:35:30",230931,3.127,129.5,1.623,0.086,23.49,111.3765,28.43,29.32,11.19,0,111.6,13.03,29.28,91.5
"2010-06-25 00:36:00",230932,2.822,122.9,2.553,0.125,23.48,111.3728,28.42,29.31,11.24,0,111.6,13.03,29.27,84.9
"2010-06-25 00:36:30",230933,3.021,123.5,1.976,0.162,23.5,111.3709,28.42,29.31,11.07,0,111.5,13.03,29.27,85.5
"2010-06-25 00:37:00",230934,3.343,121.7,1.497,0.119,23.51,111.3698,28.42,29.3,11.24,0,111.6,13.03,29.27,83.7
"2010-06-25 00:37:30",230935,3.365,126.2,3.63,0.119,23.52,111.3695,28.42,29.3,11.7,0,111.5,13.03,29.27,88.2
"2010-06-25 00:38:00",230936,3.066,125.8,4.877,0.167,23.52,111.3661,28.41,29.29,11.3,0,111.6,13.03,29.26,87.8
"2010-06-25 00:38:30",230937,3.166,121.7,3.567,0.11,23.52,111.3627,28.4,29.3,11.2,0,111.6,13.02,29.25,83.7
"2010-06-25 00:39:00",230938,3.409,123.8,5.35,0.122,23.55,111.3633,28.4,29.29,11.14,0,111.5,13.02,29.25,85.8
"2010-06-25 00:39:30",230939,3.144,123.3,2.174,0.262,23.53,111.3644,28.4,29.29,11.21,0,111.5,13.02,29.25,85.3
"2010-06-25 00:40:00",230940,2.901,122.2,2.391,0.11,23.54,111.3636,28.4,29.29,11.07,0,111.6,13.02,29.25,84.2
"2010-06-25 00:40:30",230941,2.793,121.6,2.392,0.113,23.51,111.3636,28.4,29.29,11.06,0,111.5,13.02,29.25,83.6
"2010-06-25 00:41:00",230942,2.4,132.9,3.378,0.18,23.54,111.3639,28.4,29.28,10.89,0,111.5,13.02,29.25,94.9
"2010-06-25 00:41:30",230943,2.529,138.7,2.377,0.107,23.54,111.3669,28.41,29.28,10.8,0,111.6,13.02,29.26,100.7
"2010-06-25 00:42:00",230944,2.554,129.7,4.879,0.051,23.52,111.3698,28.42,29.29,10.78,0,111.5,13.02,29.27,91.7
"2010-06-25 00:42:30",230945,2.582,122.8,2.938,0.073,23.53,111.37,28.42,29.29,10.94,0,111.5,13.02,29.27,84.8
"2010-06-25 00:43:00",230946,2.952,132.5,2.417,0.227,23.52,111.3701,28.42,29.29,10.87,0,111.5,13.02,29.27,94.5
"2010-06-25 00:43:30",230947,3.066,130.9,1.759,0.142,23.53,111.3698,28.42,29.31,10.79,0,111.5,13.02,29.27,92.9
"2010-06-25 00:44:00",230948,2.941,125.1,2.047,0.082,23.54,111.3703,28.42,29.31,10.7,0,111.5,13.03,29.27,87.1
"2010-06-25 00:44:30",230949,2.991,128.5,2.668,0.123,23.54,111.37,28.42,29.3,10.69,0,111.6,13.03,29.27,90.5
"2010-06-25 00:45:00",230950,3.239,129.3,1.843,0.098,23.55,111.3741,28.43,29.32,10.7,0,111.5,13.04,29.28,91.3
"2010-06-25 00:45:30",230951,3.202,131.5,1.268,0.065,23.54,111.3732,28.42,29.32,10.7,0,111.5,13.03,29.28,93.5
"2010-06-25 00:46:00",230952,3.068,133.4,1.147,0.064,23.58,111.3749,28.43,29.31,10.72,0,111.5,13.03,29.28,95.4
"2010-06-25 00:46:30",230953,3.112,132.8,0.936,0.064,23.57,111.3778,28.44,29.32,10.72,0,111.5,13.03,29.29,94.8
"2010-06-25 00:47:00",230954,3.01,131.6,0.612,0.029,23.56,111.3763,28.43,29.32,10.72,0,111.5,13.04,29.28,93.6
"2010-06-25 00:47:30",230955,3.023,129.8,0.635,0.057,23.53,111.3753,28.43,29.32,10.7,0,111.5,13.04,29.28,91.8
"2010-06-25 00:48:00",230956,3.136,128.3,1.5,0.093,23.55,111.3747,28.43,29.32,10.71,0,111.5,13.04,29.28,90.3
"2010-06-25 00:48:30",230957,3.16,127.3,2.202,0.154,23.56,111.3739,28.43,29.31,10.77,0,111.5,13.04,29.28,89.3
"2010-06-25 00:49:00",230958,3.056,127.6,1.407,0.075,23.54,111.3753,28.43,29.33,10.77,0,111.5,13.04,29.28,89.6
"2010-06-25 00:49:30",230959,3.203,125.4,1.069,0.082,23.54,111.375,28.43,29.34,10.84,0,111.5,13.04,29.28,87.4
"2010-06-25 00:50:00",230960,3.051,125.6,1.176,0.043,23.56,111.3754,28.43,29.33,10.87,0,111.5,13.04,29.28,87.6
"2010-06-25 00:50:30",230961,3.073,130.8,2.135,0.189,23.55,111.377,28.43,29.32,10.78,0,111.5,13.04,29.29,92.8
"2010-06-25 00:51:00",230962,3.053,132.3,1.272,0.141,23.55,111.3797,28.44,29.32,10.88,0,111.5,13.04,29.29,94.3
"2010-06-25 00:51:30",230963,2.851,132.9,1.16,0.067,23.53,111.3771,28.43,29.33,11.02,0,111.5,13.04,29.29,94.9
"2010-06-25 00:52:00",230964,2.965,130.9,4.087,0.124,23.54,111.3753,28.43,29.31,11.01,0,111.5,13.04,29.28,92.9
"2010-06-25 00:52:30",230965,2.85,124.9,3.861,0.135,23.54,111.3747,28.43,29.31,10.83,0,111.5,13.04,29.28,86.9
"2010-06-25 00:53:00",230966,2.776,126.6,2.738,0.161,23.57,111.3741,28.43,29.31,10.87,0,111.5,13.04,29.28,88.6
"2010-06-25 00:53:30",230967,2.571,127,2.818,0.181,23.54,111.3754,28.43,29.31,10.89,0,111.5,13.04,29.28,89.0
"2010-06-25 00:54:00",230968,2.557,120.8,4.214,0.254,23.53,111.3754,28.43,29.31,11.35,0,111.5,13.04,29.28,82.8
"2010-06-25 00:54:30",230969,2.383,114.7,3.044,0.226,23.53,111.3776,28.44,29.31,11.34,0,111.5,13.04,29.29,76.7
"2010-06-25 00:55:00",230970,2.043,115.4,5.867,0.141,23.49,111.3676,28.41,29.3,11.73,0,111.5,13.04,29.26,77.4
"2010-06-25 00:55:30",230971,2.397,121.8,4.646,0.189,23.54,111.3562,28.38,29.29,11.25,0,111.5,13.03,29.23,83.8
"2010-06-25 00:56:00",230972,2.309,116.7,2.427,0.155,23.55,111.3554,28.38,29.27,11.22,0,111.5,13.03,29.23,78.7
"2010-06-25 00:56:30",230973,2.485,124.9,3.698,0.134,23.56,111.3552,28.38,29.27,11.12,0,111.5,13.03,29.23,86.9
"2010-06-25 00:57:00",230974,2.546,130.4,3.263,0.13,23.54,111.3561,28.38,29.27,11.02,0,111.5,13.03,29.23,92.4
"2010-06-25 00:57:30",230975,2.433,124,3.649,0.147,23.54,111.358,28.39,29.27,11.1,0,111.5,13.03,29.24,86.0
"2010-06-25 00:58:00",230976,2.262,121.1,2.845,0.106,23.55,111.357,28.38,29.28,11.34,0,111.5,13.03,29.23,83.1
"2010-06-25 00:58:30",230977,2.475,132.7,1.803,0.218,23.55,111.3573,28.38,29.26,11.11,0,111.5,13.03,29.23,94.7
"2010-06-25 00:59:00",230978,2.283,131.4,1.933,0.174,23.55,111.358,28.39,29.27,11.09,0,111.5,13.03,29.24,93.4
"2010-06-25 00:59:30",230979,1.839,133.1,3,0.127,23.52,111.3583,28.39,29.27,11.06,0,111.5,13.03,29.24,95.1
"2010-06-25 01:00:00",230980,2.065,121.6,3.346,0.165,23.54,111.3578,28.39,29.27,11.52,0,111.5,13.03,29.24,83.6
"2010-06-25 01:00:30",230981,2.422,118.5,2.948,0.087,23.54,111.3542,28.38,29.25,11.56,0,111.5,13.03,29.23,80.5
"2010-06-25 01:01:00",230982,2.356,114.3,5.214,0.126,23.51,111.3545,28.38,29.24,11.69,0,111.5,13.03,29.23,76.3
"2010-06-25 01:01:30",230983,2.539,115.6,3.078,0.127,23.45,111.3498,28.36,29.23,11.94,0,111.5,13.04,29.22,77.6
"2010-06-25 01:02:00",230984,2.764,114.4,5.55,0.145,23.46,111.3341,28.32,29.22,11.83,0,111.5,13.04,29.17,76.4
"2010-06-25 01:02:30",230985,2.903,117.6,3.301,0.139,23.49,111.3306,28.32,29.2,11.82,0,111.5,13.04,29.17,79.6
"2010-06-25 01:03:00",230986,3.149,119.6,2.207,0.103,23.52,111.3264,28.3,29.2,11.7,0,111.5,13.04,29.15,81.6
"2010-06-25 01:03:30",230987,3.29,123.5,1.411,0.065,23.53,111.3222,28.29,29.18,11.78,0,111.5,13.04,29.14,85.5
"2010-06-25 01:04:00",230988,3.278,120.8,0.962,0.06,23.49,111.3222,28.29,29.18,11.79,0,111.5,13.04,29.14,82.8
"2010-06-25 01:04:30",230989,3.193,123,1.386,0.097,23.53,111.3208,28.29,29.17,12.35,0,111.5,13.04,29.14,85.0
"2010-06-25 01:05:00",230990,3.17,124.2,1.878,0.151,23.52,111.3076,28.26,29.16,12.57,0,111.5,13.04,29.11,86.2
"2010-06-25 01:05:30",230991,3.02,120,2.912,0.092,23.53,111.2964,28.23,29.15,12.5,0,111.5,13.04,29.08,82.0
"2010-06-25 01:06:00",230992,3.144,115.2,2.241,0.113,23.53,111.2922,28.22,29.13,12.34,0,111.5,13.04,29.07,77.2
"2010-06-25 01:06:30",230993,3.47,121.9,2.451,0.175,23.47,111.2886,28.21,29.12,12.39,0,111.5,13.04,29.06,83.9
"2010-06-25 01:07:00",230994,3.849,114.9,1.034,0.109,23.44,111.2883,28.21,29.11,12.66,0,111.5,13.04,29.06,76.9
"2010-06-25 01:07:30",230995,3.715,117.9,2.372,0.07,23.52,111.283,28.19,29.09,12.69,0,111.5,13.04,29.04,79.9
"2010-06-25 01:08:00",230996,3.5,120.9,5.541,0.12,23.49,111.2695,28.16,29.08,12.63,0,111.5,13.04,29.01,82.9
"2010-06-25 01:08:30",230997,3.892,119.8,1.507,0.125,23.58,111.2637,28.14,29.06,12.3,0,111.5,13.04,28.99,81.8
"2010-06-25 01:09:00",230998,3.888,118.4,0.688,0.05,23.53,111.264,28.14,29.07,11.95,0,111.5,13.04,28.99,80.4
"2010-06-25 01:09:30",230999,3.813,119.3,0.335,0.061,23.57,111.2658,28.15,29.06,12.01,0,111.5,13.04,29.00,81.3
"2010-06-25 01:10:00",231000,3.875,120.1,1.44,0.086,23.53,111.269,28.16,29.06,12.11,0,111.5,13.04,29.01,82.1
"2010-06-25 01:10:30",231001,3.827,118.8,0.826,0.093,23.55,111.2702,28.16,29.05,12.45,0,111.5,13.04,29.01,80.8
"2010-06-25 01:11:00",231002,3.804,121.1,2.238,0.058,23.53,111.2689,28.16,29.06,12.3,0,111.5,13.04,29.01,83.1
"2010-06-25 01:11:30",231003,3.887,123.6,1.2,0.092,23.51,111.2685,28.16,29.05,11.93,0,111.5,13.04,29.01,85.6
"2010-06-25 01:12:00",231004,4.13,124.6,0.815,0.047,23.55,111.2701,28.16,29.06,11.3,0,111.5,13.04,29.01,86.6
"2010-06-25 01:12:30",231005,4.273,123.5,1.306,0.11,23.59,111.2721,28.16,29.04,11.22,0,111.5,13.04,29.01,85.5
"2010-06-25 01:13:00",231006,4.374,123.1,1.02,0.068,23.63,111.2727,28.17,29.06,11.21,0,111.5,13.04,29.02,85.1
"2010-06-25 01:13:30",231007,4.405,123.1,0.725,0.108,23.64,111.2747,28.17,29.07,11.26,0,111.5,13.04,29.02,85.1
"2010-06-25 01:14:00",231008,4.38,122.4,0.752,0.079,23.63,111.2814,28.19,29.07,11.25,0,111.5,13.03,29.04,84.4
"2010-06-25 01:14:30",231009,4.376,123.6,0.861,0.048,23.68,111.2881,28.21,29.07,11.27,0,111.5,13.03,29.06,85.6
"2010-06-25 01:15:00",231010,4.411,124.2,0.702,0.049,23.7,111.2907,28.21,29.09,11.33,0,111.5,13.04,29.06,86.2
"2010-06-25 01:15:30",231011,4.387,125.8,1.591,0.086,23.62,111.2932,28.22,29.1,11.33,0,111.5,13.03,29.07,87.8
"2010-06-25 01:16:00",231012,4.262,126.2,1.739,0.093,23.67,111.2943,28.22,29.1,11.35,0,111.5,13.04,29.07,88.2
"2010-06-25 01:16:30",231013,4.078,129.1,1.539,0.082,23.67,111.2976,28.23,29.1,11.3,0,111.5,13.04,29.08,91.1
"2010-06-25 01:17:00",231014,4.075,128.2,2.224,0.079,23.68,111.2982,28.23,29.12,11.28,0,111.5,13.04,29.08,90.2
"2010-06-25 01:17:30",231015,4.044,126,1.679,0.077,23.69,111.2995,28.24,29.12,11.28,0,111.5,13.04,29.09,88.0
"2010-06-25 01:18:00",231016,4.131,127.9,2.474,0.109,23.65,111.3001,28.24,29.12,11.25,0,111.5,13.04,29.09,89.9
"2010-06-25 01:18:30",231017,4.095,128,1.8,0.112,23.64,111.3023,28.24,29.12,11.19,0,111.5,13.04,29.09,90.0
"2010-06-25 01:19:00",231018,4.291,129,1.92,0.107,23.7,111.3032,28.24,29.13,11,0,111.5,13.04,29.10,91.0
"2010-06-25 01:19:30",231019,4.125,131.9,1.209,0.047,23.71,111.3084,28.26,29.15,10.99,0,111.5,13.04,29.11,93.9
"2010-06-25 01:20:00",231020,4.036,131.2,0.636,0.072,23.71,111.3199,28.29,29.16,11.01,0,111.5,13.04,29.14,93.2
"2010-06-25 01:20:30",231021,4.05,131.6,0.924,0.082,23.74,111.3219,28.29,29.16,11.01,0,111.5,13.04,29.14,93.6
"2010-06-25 01:21:00",231022,3.928,131.4,0.714,0.043,23.68,111.3229,28.3,29.16,10.97,0,111.5,13.04,29.15,93.4
"2010-06-25 01:21:30",231023,3.752,129,1.017,0.099,23.71,111.3235,28.3,29.16,10.88,0,111.5,13.04,29.15,91.0
"2010-06-25 01:22:00",231024,3.687,128.2,1.941,0.079,23.69,111.3244,28.3,29.18,10.84,0,111.5,13.05,29.15,90.2
"2010-06-25 01:22:30",231025,3.518,134.8,2.486,0.084,23.73,111.3247,28.3,29.17,10.98,0,111.5,13.04,29.15,96.8
"2010-06-25 01:23:00",231026,3.483,131.8,1.136,0.077,23.72,111.3287,28.31,29.19,10.97,0,111.5,13.05,29.16,93.8
"2010-06-25 01:23:30",231027,3.552,129,1.092,0.056,23.71,111.3288,28.31,29.18,10.82,0,111.5,13.05,29.16,91.0
"2010-06-25 01:24:00",231028,3.52,128.5,1.062,0.075,23.72,111.3307,28.32,29.19,10.78,0,111.5,13.05,29.17,90.5
"2010-06-25 01:24:30",231029,3.569,133.4,2.835,0.065,23.7,111.3309,28.32,29.19,10.87,0,111.5,13.05,29.17,95.4
"2010-06-25 01:25:00",231030,3.588,135.9,1.425,0.073,23.74,111.3309,28.32,29.19,10.98,0,111.5,13.05,29.17,97.9
"2010-06-25 01:25:30",231031,3.552,133.6,1.553,0.085,23.67,111.3373,28.33,29.2,10.96,0,111.4,13.05,29.18,95.6
"2010-06-25 01:26:00",231032,3.586,133.4,1.188,0.098,23.69,111.3385,28.34,29.2,10.96,0,111.4,13.05,29.19,95.4
"2010-06-25 01:26:30",231033,3.521,135.8,1.071,0.085,23.71,111.3402,28.34,29.2,10.96,0,111.4,13.05,29.19,97.8
"2010-06-25 01:27:00",231034,3.375,138.3,1.423,0.057,23.8,111.3442,28.35,29.19,11.01,0,111.4,13.05,29.20,100.3
"2010-06-25 01:27:30",231035,3.366,137,0.858,0.067,23.72,111.3478,28.36,29.21,10.97,0,111.4,13.05,29.21,99.0
"2010-06-25 01:28:00",231036,3.29,135.2,0.705,0.08,23.62,111.3487,28.36,29.21,11.01,0,111.4,13.05,29.21,97.2
"2010-06-25 01:28:30",231037,3.212,135.3,0.532,0.049,23.63,111.3484,28.36,29.22,11,0,111.4,13.05,29.21,97.3
"2010-06-25 01:29:00",231038,3.05,137.3,1.208,0.085,23.67,111.3478,28.36,29.24,10.97,0,111.4,13.05,29.21,99.3
"2010-06-25 01:29:30",231039,2.985,135.4,1.821,0.141,23.72,111.3448,28.35,29.24,10.93,0,111.4,13.05,29.20,97.4
"2010-06-25 01:30:00",231040,2.94,134.7,1.785,0.091,23.79,111.3445,28.35,29.22,10.96,0,111.4,13.05,29.20,96.7
"2010-06-25 01:30:30",231041,2.951,136.9,1.422,0.089,23.81,111.347,28.36,29.23,10.97,0,111.5,13.05,29.21,98.9
"2010-06-25 01:31:00",231042,2.844,137,0.704,0.075,23.81,111.349,28.36,29.22,10.96,0,111.4,13.05,29.21,99.0
"2010-06-25 01:31:30",231043,2.881,135.8,0.739,0.035,23.87,111.349,28.36,29.23,11.02,0,111.5,13.05,29.21,97.8
"2010-06-25 01:32:00",231044,2.928,134.9,1.009,0.049,23.86,111.3464,28.36,29.23,11,0,111.4,13.05,29.21,96.9
"2010-06-25 01:32:30",231045,2.999,132.6,1.368,0.057,23.8,111.3485,28.36,29.24,10.92,0,111.4,13.05,29.21,94.6
"2010-06-25 01:33:00",231046,2.965,132.2,1.471,0.051,23.8,111.3423,28.35,29.23,10.92,0,111.4,13.05,29.20,94.2
"2010-06-25 01:33:30",231047,3.191,131.3,1.126,0.076,23.77,111.3428,28.35,29.23,10.89,0,111.4,13.05,29.20,93.3
"2010-06-25 01:34:00",231048,3.344,131.8,0.692,0.085,23.78,111.3395,28.34,29.23,10.86,0,111.4,13.05,29.19,93.8
"2010-06-25 01:34:30",231049,3.25,132.2,0.623,0.051,23.82,111.3384,28.34,29.22,10.86,0,111.4,13.05,29.19,94.2
"2010-06-25 01:35:00",231050,3.258,132.9,1.036,0.022,23.78,111.34,28.34,29.24,10.88,0,111.5,13.05,29.19,94.9
"2010-06-25 01:35:30",231051,3.217,134.8,0.892,0.044,23.76,111.3419,28.34,29.24,10.95,0,111.4,13.05,29.20,96.8
"2010-06-25 01:36:00",231052,3.193,133.3,0.838,0.02,23.84,111.3431,28.35,29.25,10.9,0,111.4,13.05,29.20,95.3
"2010-06-25 01:36:30",231053,3.259,133.5,0.636,0.044,23.79,111.3428,28.35,29.24,10.91,0,111.4,13.05,29.20,95.5
"2010-06-25 01:37:00",231054,3.263,133.7,0.831,0.033,23.8,111.3434,28.35,29.23,10.96,0,111.5,13.05,29.20,95.7
"2010-06-25 01:37:30",231055,3.209,132.3,0.774,0.06,23.86,111.3438,28.35,29.24,10.9,0,111.5,13.05,29.20,94.3
"2010-06-25 01:38:00",231056,3.301,132.6,0.837,0.045,23.82,111.3438,28.35,29.23,10.94,0,111.5,13.05,29.20,94.6
"2010-06-25 01:38:30",231057,3.198,133.3,1.109,0.063,23.88,111.3438,28.35,29.23,10.96,0,111.5,13.06,29.20,95.3
"2010-06-25 01:39:00",231058,3.264,133.8,1.25,0.097,23.79,111.3438,28.35,29.24,10.9,0,111.5,13.06,29.20,95.8
"2010-06-25 01:39:30",231059,3.199,140.6,2.885,0.098,23.82,111.3438,28.35,29.25,10.93,0,111.5,13.06,29.20,102.6
"2010-06-25 01:40:00",231060,3.424,142,3.589,0.09,23.84,111.3435,28.35,29.23,10.94,0,111.4,13.06,29.20,104.0
"2010-06-25 01:40:30",231061,3.237,136.3,0.744,0.076,23.72,111.3438,28.35,29.24,10.92,0,111.5,13.06,29.20,98.3
"2010-06-25 01:41:00",231062,3.07,140.4,3.046,0.063,23.75,111.3432,28.35,29.24,10.91,0,111.4,13.06,29.20,102.4
"2010-06-25 01:41:30",231063,2.864,149.6,1.667,0.11,23.87,111.3429,28.35,29.23,10.96,0,111.4,13.06,29.20,111.6
"2010-06-25 01:42:00",231064,3.02,147.6,1.421,0.074,23.94,111.3438,28.35,29.25,11.07,0,111.4,13.06,29.20,109.6
"2010-06-25 01:42:30",231065,3.184,148.1,1.555,0.111,23.93,111.3438,28.35,29.25,11.02,0,111.4,13.06,29.20,110.1
"2010-06-25 01:43:00",231066,3.213,149.9,2.89,0.118,23.92,111.3446,28.35,29.25,10.97,0,111.4,13.06,29.20,111.9
"2010-06-25 01:43:30",231067,3.168,152.6,0.881,0.084,23.88,111.348,28.36,29.25,10.95,0,111.4,13.06,29.21,114.6
"2010-06-25 01:44:00",231068,3.198,149.9,1.188,0.104,23.93,111.3605,28.39,29.26,10.85,0,111.4,13.06,29.24,111.9
"2010-06-25 01:44:30",231069,3.217,149,0.924,0.041,23.94,111.365,28.4,29.27,10.79,0,111.4,13.06,29.25,111.0
"2010-06-25 01:45:00",231070,3.243,149.4,0.716,0.071,23.92,111.37,28.42,29.28,10.77,0,111.4,13.06,29.27,111.4
"2010-06-25 01:45:30",231071,3.331,145.8,1.167,0.095,23.94,111.3743,28.43,29.28,10.79,0,111.4,13.06,29.28,107.8
"2010-06-25 01:46:00",231072,3.369,148.9,1.526,0.058,23.89,111.3759,28.43,29.29,10.68,0,111.4,13.06,29.28,110.9
"2010-06-25 01:46:30",231073,3.172,150.4,2.421,0.111,23.94,111.3774,28.44,29.29,10.71,0,111.4,13.06,29.29,112.4
"2010-06-25 01:47:00",231074,3.057,144.9,1.591,0.067,23.94,111.378,28.44,29.3,10.8,0,111.4,13.05,29.29,106.9
"2010-06-25 01:47:30",231075,3.249,140.8,2.809,0.195,23.91,111.383,28.45,29.3,10.77,0,111.4,13.05,29.30,102.8
"2010-06-25 01:48:00",231076,3.784,133.1,2.152,0.268,23.87,111.3778,28.44,29.31,10.68,0,111.4,13.05,29.29,95.1
"2010-06-25 01:48:30",231077,4.179,129.6,1.197,0.078,23.84,111.3607,28.39,29.29,10.59,0,111.4,13.05,29.24,91.6